[[{"header":{"parameterUnit":"m.s-1","parameterCategory":2,"la1":30.2991,"la2":30.254,"lo1":-89.0895,"lo2":-89.0444,"dy":0.0017,"dx":0.0017,"nx":28,"ny":28,"refTime":"2024-09-27T03:00:00:Z","depth":"0","parameterNumber":2,"parameterNumberName":"U-component_of_CURRENTS"},"data":[0,0,0,0,0,0,0,0,0,0,0,0,0,0,0,0,0,0,0,0,0,0,0,0,0,0,0,0,0,0,0,0,0,0,0,0,0,0,0,0,0,0,0,0,0,0,0,0,0,0,0,0,0,0,0,0,0,0,0.1893,0.1893,0,0.1844,0.1843,0.1843,0.1778,0.1777,0.1776,0.1775,0.1701,0.17,0.1699,0,0,0,0,0,0,0,0,0,0,0,0,0,0.1882,0.1883,0.1893,0.1893,0.1892,0.1844,0.1843,0.1842,0.1778,0.1777,0.1776,0.1775,0.1702,0.17,0.1699,0,0,0,0,0,0,0,0,0,0,0,0,0,0.1864,0.1883,0.1893,0.1856,0.1852,0.1844,0.1843,0.1842,0.1779,0.1777,0.1776,0.1775,0.1702,0.17,0.1699,0.1715,0,0,0.1694,0.1693,0,0,0,0,0,0,0,0,0.1865,0.1864,0.1862,0.1858,0.1854,0.1817,0.1812,0.1799,0.1779,0.1805,0.1775,0.1774,0.174,0.1735,0.1727,0.1712,0.1709,0.1693,0.1692,0.1692,0.1691,0,0,0,0,0,0,0,0.1867,0.1866,0.1872,0.1861,0.1857,0.1825,0.1821,0.1809,0.1779,0.1802,0.1798,0.1796,0.1737,0.1729,0.1724,0.1708,0.1693,0.1692,0.1691,0.169,0.1745,0.1747,0,0,0,0,0,0,0.1881,0.1868,0.1874,0.1871,0.1858,0.1826,0.1822,0.1829,0.1779,0.1771,0.1797,0.1793,0.1732,0.1727,0.1722,0.1767,0.1692,0.169,0.1689,0.1742,0.1745,0.1748,0,0,0,0,0,0,0.1881,0.1882,0.1876,0.1868,0.1866,0.1828,0.1837,0.1829,0.1821,0.1776,0.1766,0.1797,0.1731,0.1724,0.1734,0.1762,0.1689,0.1688,0.1739,0.1743,0.1746,0.1839,0,0,0,0,0,0,0.1881,0.1883,0.1892,0.187,0.1867,0.1883,0.1838,0.1829,0.1822,0.1816,0.1773,0.1764,0.1729,0.1737,0.1732,0.1758,0.1686,0.1736,0.1741,0.1745,0.1833,0.1845,0.1856,0,0,0,0,0,0.1881,0.1898,0.1893,0.1894,0.1882,0.1884,0.188,0.1847,0.1824,0.1832,0.1812,0.1766,0.1762,0.1738,0.1731,0.1758,0.1734,0.174,0.1745,0.1828,0.1843,0.1856,0,0,0,0,0,0,0.1896,0.1893,0.1887,0.1902,0.1901,0.1874,0.1877,0.1858,0.1847,0.1845,0.1795,0.1787,0.1809,0.1779,0.1753,0.1792,0.1742,0.1746,0.1807,0.1821,0.1832,0.1831,0.1685,0,0,0,0,0,0.1908,0.1918,0.1915,0.1927,0.1933,0.191,0.1905,0.1892,0.1879,0.1872,0.1844,0.1827,0.1829,0.182,0.1816,0.1833,0.1808,0.1849,0.1861,0.1871,0.1869,0.1884,0.1896,0.1766,0.1766,0.1766,0,0,0.1913,0.1916,0.1919,0.193,0.1926,0.1934,0.1903,0.1913,0.1917,0.1868,0.1871,0.1869,0.1846,0.187,0.1876,0.1845,0.1897,0.1878,0.1886,0.1879,0.1891,0.1903,0.1914,0.177,0.1769,0.1768,0,0,0.1922,0.1941,0.1947,0.1957,0.1966,0.1963,0.1971,0.1964,0.196,0.1976,0.1949,0.1974,0.1954,0.1955,0.1949,0.2026,0.1965,0.2022,0.2067,0.2083,0.2093,0.2102,0.2086,0.2093,0.2019,0.2019,0.2019,0,0.1925,0.1935,0.195,0.1962,0.1966,0.1978,0.1985,0.1997,0.1992,0.1999,0.199,0.2005,0.1997,0.2024,0.2058,0.2051,0.2034,0.2012,0.2096,0.2104,0.2111,0.2094,0.21,0.2024,0.2024,0.2023,0.2023,0,0.1931,0.1946,0.1958,0.1975,0.199,0.2008,0.2028,0.205,0.2056,0.206,0.21,0.2109,0.2108,0.2128,0.2115,0.2167,0.213,0.2114,0.2055,0.213,0.2107,0.2111,0.2032,0.203,0.2028,0.2027,0,0,0.191,0.195,0.1953,0.1956,0.1999,0.2004,0.2047,0.2074,0.2088,0.2126,0.2141,0.2193,0.2202,0.22,0.2199,0.2227,0.228,0.2196,0.2195,0.2171,0.2289,0.2136,0.2126,0.2274,0.2275,0.2276,0.2251,0,0.1902,0.1918,0.1945,0.1961,0.1969,0.2011,0.2038,0.2075,0.2108,0.2137,0.2188,0.2204,0.2226,0.2229,0.2273,0.2269,0.2296,0.2286,0.2228,0.2226,0.2073,0.2128,0.2068,0.2029,0.2255,0.2256,0.2256,0,0.1885,0.1899,0.1907,0.1939,0.1947,0.1963,0.2005,0.2034,0.2104,0.213,0.2186,0.2211,0.227,0.2275,0.2323,0.231,0.2314,0.2318,0.2317,0.2141,0.2082,0.1993,0.2028,0.2011,0.2262,0.2262,0.2261,0,0.1831,0.1867,0.1867,0.188,0.1925,0.1935,0.1963,0.2025,0.2045,0.2119,0.2135,0.2215,0.2229,0.2276,0.228,0.2308,0.2303,0.2336,0.2205,0.2193,0.2112,0.2089,0.2112,0.2377,0.2377,0.2377,0.2377,0,0.1798,0.1794,0.1839,0.1836,0.1838,0.1887,0.1901,0.1946,0.2006,0.2028,0.2116,0.2131,0.2231,0.2236,0.2269,0.2215,0.2287,0.2212,0.218,0.214,0.2121,0.2074,0.2061,0.2376,0.2376,0.2377,0.2377,0,0.1719,0.1756,0.175,0.1793,0.1806,0.1801,0.1848,0.1867,0.1924,0.1954,0.1971,0.2061,0.2063,0.2108,0.2153,0.2155,0.2068,0.2103,0.2024,0.1982,0.1853,0.1846,0.1659,0.1629,0.1991,0.1987,0.1983,0,0.1662,0.1658,0.1698,0.1701,0.1714,0.1726,0.1745,0.1814,0.1837,0.1895,0.1903,0.1919,0.1915,0.1891,0.1901,0.1888,0.1889,0.1815,0.1872,0.1826,0.1798,0.1704,0.1691,0.1817,0.1813,0.1809,0.1807,0,0.1552,0.158,0.1588,0.1604,0.1617,0.1626,0.1657,0.1659,0.1737,0.1744,0.1742,0.1734,0.1727,0.1687,0.1646,0.1651,0.1713,0.1737,0.1743,0.1693,0.1543,0.1505,0.1837,0.1775,0.1778,0.178,0.1782,0.1783,0.1458,0.145,0.1482,0.1489,0.151,0.1506,0.1481,0.1516,0.1504,0.1504,0.1563,0.1521,0.1556,0.1496,0.1467,0.1421,0.1442,0.1452,0.1457,0.1373,0.1304,0.1521,0.1377,0.1378,0.1379,0.1379,0.138,0,0.1336,0.1358,0.1366,0.1371,0.1358,0.1402,0.1407,0.1372,0.1315,0.1352,0.1325,0.1311,0.1263,0.1291,0.1268,0.1209,0.1181,0.1179,0.1126,0.1144,0.1407,0.1363,0.1143,0.1143,0.1143,0.1143,0.1143,0.1144,0.1272,0.1252,0.1274,0.1217,0.122,0.1168,0.1145,0.1111,0.1118,0.1067,0.1058,0.1086,0.1141,0.1106,0.1069,0.1063,0.103,0.0882,0.092,0.1217,0.1247,0.1275,0.1236,0.0992,0.0992,0.064,0.0638,0.0636]},{"header":{"parameterUnit":"m.s-1","parameterCategory":2,"la1":30.2991,"la2":30.254,"lo1":-89.0895,"lo2":-89.0444,"dy":0.0017,"dx":0.0017,"nx":28,"ny":28,"refTime":"2024-09-27T03:00:00:Z","depth":"0","parameterNumber":3,"parameterNumberName":"V-component_of_CURRENTS"},"data":[0,0,0,0,0,0,0,0,0,0,0,0,0,0,0,0,0,0,0,0,0,0,0,0,0,0,0,0,0,0,0,0,0,0,0,0,0,0,0,0,0,0,0,0,0,0,0,0,0,0,0,0,0,0,0,0,0,0,0.0379,0.038,0,0.041,0.041,0.0411,0.0411,0.0411,0.041,0.041,0.0416,0.0417,0.0417,0,0,0,0,0,0,0,0,0,0,0,0,0,0.0303,0.0304,0.0379,0.038,0.038,0.041,0.041,0.0411,0.0411,0.0411,0.041,0.041,0.0416,0.0417,0.0417,0,0,0,0,0,0,0,0,0,0,0,0,0,0.0335,0.0305,0.0379,0.0384,0.0385,0.041,0.041,0.0411,0.0411,0.0411,0.041,0.041,0.0416,0.0416,0.0417,0.0434,0,0,0.042,0.042,0,0,0,0,0,0,0,0,0.0333,0.0338,0.0383,0.0384,0.0384,0.0406,0.0386,0.0417,0.0412,0.0401,0.041,0.0409,0.0411,0.0412,0.042,0.0434,0.0435,0.042,0.042,0.0421,0.0421,0,0,0,0,0,0,0,0.0331,0.0337,0.0392,0.0383,0.0384,0.0378,0.0382,0.0392,0.0409,0.0402,0.0402,0.0406,0.0411,0.0419,0.042,0.0435,0.042,0.042,0.0421,0.0421,0.0462,0.0462,0,0,0,0,0,0,0.0329,0.0335,0.0391,0.0393,0.0357,0.038,0.0385,0.04,0.0409,0.041,0.0406,0.0406,0.0418,0.0419,0.042,0.0451,0.0421,0.0421,0.0422,0.0461,0.0462,0.0463,0,0,0,0,0,0,0.0328,0.0334,0.0389,0.0363,0.037,0.0382,0.0399,0.0401,0.0408,0.0412,0.0413,0.0411,0.0417,0.0419,0.0431,0.0451,0.0422,0.0422,0.0461,0.0461,0.0462,0.0506,0,0,0,0,0,0,0.0325,0.0334,0.0345,0.0364,0.0371,0.0411,0.04,0.0402,0.0411,0.041,0.0417,0.0417,0.0417,0.043,0.0432,0.0451,0.0423,0.046,0.0461,0.0462,0.0504,0.0508,0.0512,0,0,0,0,0,0.0323,0.0342,0.0346,0.0353,0.0387,0.0412,0.0416,0.0421,0.0411,0.0423,0.0423,0.0416,0.0439,0.0432,0.0434,0.0453,0.0459,0.0461,0.0462,0.0502,0.0508,0.0512,0,0,0,0,0,0,0.0312,0.0345,0.0349,0.0377,0.0395,0.0412,0.0423,0.0423,0.0433,0.043,0.0427,0.0428,0.0447,0.0442,0.0434,0.0467,0.0447,0.0449,0.0477,0.0482,0.0486,0.05,0.0424,0,0,0,0,0,0.0316,0.0341,0.0365,0.0386,0.0398,0.041,0.0419,0.0424,0.0434,0.0437,0.0441,0.0444,0.0456,0.0461,0.0469,0.0488,0.0479,0.05,0.0505,0.0508,0.052,0.0519,0.0525,0.0467,0.0467,0.0467,0,0,0.0313,0.0337,0.0348,0.0385,0.04,0.0424,0.0414,0.0434,0.0451,0.0437,0.0459,0.0461,0.0464,0.0487,0.0495,0.0484,0.0518,0.051,0.0513,0.0523,0.0521,0.0527,0.0532,0.0468,0.0468,0.0468,0,0,0.0321,0.0347,0.0368,0.0391,0.0419,0.0433,0.0438,0.0459,0.0468,0.049,0.0484,0.05,0.0512,0.0525,0.0531,0.0563,0.0541,0.0557,0.0591,0.059,0.0595,0.0599,0.0587,0.059,0.0558,0.0558,0.0558,0,0.0314,0.0352,0.0376,0.0405,0.0425,0.0438,0.0463,0.0479,0.0499,0.0512,0.0502,0.0534,0.0536,0.057,0.0581,0.0575,0.056,0.0573,0.0596,0.06,0.0604,0.0591,0.0593,0.0561,0.056,0.056,0.056,0,0.0339,0.037,0.0387,0.0432,0.0457,0.0482,0.0511,0.0532,0.0541,0.0555,0.0588,0.0595,0.0615,0.0617,0.0611,0.064,0.0617,0.0602,0.0585,0.0612,0.0596,0.0598,0.0564,0.0563,0.0562,0.0562,0,0,0.0319,0.0389,0.0395,0.0424,0.0475,0.0499,0.0537,0.0578,0.0604,0.0623,0.0658,0.0682,0.0683,0.0689,0.0684,0.0687,0.0699,0.0656,0.0655,0.0647,0.0684,0.0649,0.0647,0.0681,0.0681,0.0682,0.066,0,0.0329,0.0386,0.042,0.0472,0.0506,0.0541,0.0578,0.0615,0.0644,0.0682,0.0698,0.0727,0.071,0.0721,0.0725,0.0708,0.0706,0.0706,0.0656,0.0655,0.0623,0.065,0.0647,0.0625,0.0661,0.0661,0.0662,0,0.0344,0.0384,0.0435,0.0505,0.0522,0.0553,0.062,0.0656,0.0711,0.0733,0.0766,0.0776,0.0802,0.0776,0.0768,0.0763,0.0731,0.0711,0.0709,0.0666,0.0625,0.0605,0.0627,0.0634,0.0664,0.0664,0.0664,0,0.0327,0.0397,0.0439,0.0463,0.054,0.0567,0.0606,0.0667,0.0708,0.0765,0.0798,0.0822,0.0839,0.0813,0.0781,0.077,0.0758,0.0735,0.0674,0.067,0.0655,0.0649,0.0683,0.0725,0.0725,0.0725,0.0725,0,0.0337,0.0372,0.0433,0.0459,0.0511,0.0562,0.0623,0.0666,0.0734,0.0792,0.0819,0.0861,0.0847,0.0843,0.0799,0.0746,0.0769,0.069,0.0669,0.0668,0.0663,0.0657,0.0651,0.0724,0.0724,0.0724,0.0725,0,0.0325,0.0364,0.0415,0.0484,0.0508,0.0545,0.0633,0.0686,0.0739,0.0817,0.0838,0.0891,0.0882,0.0855,0.0816,0.0767,0.0716,0.069,0.0686,0.0665,0.0604,0.06,0.061,0.0624,0.062,0.0619,0.0618,0,0.0332,0.0355,0.0423,0.0459,0.0493,0.0554,0.0609,0.068,0.0742,0.0835,0.0877,0.0897,0.0917,0.0849,0.0772,0.0691,0.0692,0.0628,0.0612,0.0612,0.0592,0.0607,0.0621,0.0605,0.0604,0.0604,0.0603,0,0.0343,0.0358,0.0399,0.0467,0.0523,0.059,0.0668,0.0715,0.0809,0.0863,0.0931,0.0948,0.0897,0.0836,0.0731,0.0663,0.0642,0.061,0.0623,0.0598,0.0607,0.0607,0.0601,0.0597,0.0598,0.0598,0.0599,0.0599,0.0349,0.0371,0.0422,0.0489,0.0551,0.0628,0.0681,0.0762,0.0842,0.0938,0.0956,0.0996,0.0928,0.0783,0.0691,0.0569,0.0586,0.0541,0.0539,0.0557,0.0571,0.0545,0.0508,0.0508,0.0508,0.0508,0.0508,0,0.0366,0.0395,0.0452,0.0528,0.0592,0.0626,0.0729,0.0786,0.0866,0.0959,0.1005,0.1033,0.0909,0.0801,0.0635,0.0544,0.0528,0.0505,0.0544,0.0564,0.055,0.0549,0.0507,0.0507,0.0507,0.0507,0.0507,0.0507,0.0379,0.0424,0.0451,0.0551,0.0604,0.0689,0.0741,0.0819,0.0903,0.1025,0.1098,0.1155,0.1133,0.0802,0.0624,0.0559,0.0562,0.0512,0.0535,0.0535,0.0539,0.0543,0.0545,0.0502,0.0502,0.0576,0.0576,0.0576]}],[{"header":{"parameterUnit":"m.s-1","parameterCategory":2,"la1":30.2991,"la2":30.254,"lo1":-89.0895,"lo2":-89.0444,"dy":0.0017,"dx":0.0017,"nx":28,"ny":28,"refTime":"2024-09-27T03:00:00:Z","depth":"2","parameterNumber":2,"parameterNumberName":"U-component_of_CURRENTS"},"data":[0,0,0,0,0,0,0,0,0,0,0,0,0,0,0,0,0,0,0,0,0,0,0,0,0,0,0,0,0,0,0,0,0,0,0,0,0,0,0,0,0,0,0,0,0,0,0,0,0,0,0,0,0,0,0,0,0,0,0.1409,0.1409,0,0.1397,0.1397,0.1397,0.1373,0.1372,0.1371,0.1371,0.1326,0.1326,0.1326,0,0,0,0,0,0,0,0,0,0,0,0,0,0.1429,0.1429,0.1409,0.1409,0.1408,0.1397,0.1397,0.1398,0.1373,0.1372,0.1371,0.137,0.1326,0.1326,0.1326,0,0,0,0,0,0,0,0,0,0,0,0,0,0.1424,0.1429,0.1409,0.1391,0.1389,0.1397,0.1397,0.1398,0.1374,0.1372,0.1371,0.137,0.1327,0.1326,0.1326,0.135,0,0,0.1324,0.1324,0,0,0,0,0,0,0,0,0.1424,0.1423,0.1394,0.1392,0.139,0.1381,0.1388,0.1378,0.1374,0.1385,0.1371,0.1369,0.134,0.1338,0.1346,0.1348,0.1346,0.1324,0.1324,0.1324,0.1324,0,0,0,0,0,0,0,0.1424,0.1424,0.1409,0.1394,0.1391,0.1389,0.1387,0.1386,0.1373,0.1384,0.1381,0.1372,0.1339,0.1347,0.1345,0.1346,0.1324,0.1324,0.1323,0.1323,0.1391,0.1393,0,0,0,0,0,0,0.1417,0.1424,0.141,0.1408,0.1398,0.1389,0.1388,0.1389,0.1374,0.1369,0.1373,0.1371,0.1348,0.1345,0.1343,0.1388,0.1324,0.1323,0.1323,0.1389,0.1391,0.1394,0,0,0,0,0,0,0.1418,0.1416,0.141,0.1411,0.141,0.139,0.1392,0.139,0.1405,0.1365,0.1361,0.1391,0.1347,0.1344,0.135,0.1385,0.1323,0.1323,0.1386,0.139,0.1393,0.1468,0,0,0,0,0,0,0.1418,0.1417,0.143,0.1411,0.1409,0.1421,0.1393,0.139,0.1399,0.1396,0.1379,0.1373,0.1346,0.1351,0.1349,0.1384,0.1322,0.1384,0.1388,0.1392,0.1463,0.1473,0.1482,0,0,0,0,0,0.1419,0.1427,0.1431,0.1429,0.1423,0.1422,0.1422,0.1406,0.1401,0.1415,0.1402,0.1374,0.1375,0.1352,0.135,0.1385,0.1382,0.1387,0.1391,0.1458,0.1471,0.1482,0,0,0,0,0,0,0.1443,0.1424,0.1428,0.1432,0.1434,0.1416,0.143,0.1421,0.1427,0.1425,0.1394,0.1388,0.1412,0.1392,0.1368,0.1419,0.1377,0.1382,0.1429,0.1441,0.145,0.1448,0.1322,0,0,0,0,0,0.1456,0.1447,0.1447,0.1446,0.1463,0.1458,0.146,0.1447,0.144,0.1442,0.1427,0.1422,0.1433,0.1429,0.143,0.1453,0.1437,0.1478,0.1487,0.1496,0.1495,0.1516,0.1528,0.1409,0.1409,0.1409,0,0,0.1459,0.1447,0.1443,0.1449,0.146,0.1478,0.1458,0.1465,0.1471,0.1436,0.1452,0.1456,0.1448,0.1474,0.1484,0.1458,0.1522,0.1502,0.1508,0.1503,0.1522,0.1534,0.1544,0.1412,0.1412,0.1411,0,0,0.1459,0.147,0.1477,0.1486,0.1495,0.1496,0.1505,0.1507,0.1511,0.1528,0.1512,0.1534,0.154,0.1541,0.1544,0.1611,0.1578,0.162,0.1659,0.1681,0.1691,0.1699,0.1692,0.1698,0.1619,0.1619,0.1619,0,0.1477,0.1474,0.148,0.1498,0.1503,0.151,0.1531,0.1543,0.1536,0.1549,0.154,0.1577,0.1573,0.1607,0.1635,0.1632,0.1629,0.1613,0.1693,0.17,0.1707,0.1698,0.1704,0.1623,0.1623,0.1623,0.1622,0,0.148,0.1493,0.1504,0.1526,0.1542,0.1552,0.1573,0.1586,0.1598,0.161,0.1653,0.1655,0.1674,0.1691,0.1685,0.1741,0.1717,0.1706,0.1659,0.1723,0.171,0.1715,0.1629,0.1628,0.1627,0.1626,0,0,0.1475,0.1505,0.1506,0.1519,0.1553,0.1556,0.1591,0.1624,0.1647,0.167,0.1703,0.1749,0.1764,0.1769,0.1769,0.1791,0.1847,0.1777,0.1776,0.1761,0.188,0.1736,0.1728,0.1853,0.1855,0.1856,0.1849,0,0.1483,0.151,0.152,0.1542,0.1569,0.1585,0.1612,0.164,0.1677,0.1712,0.1745,0.1785,0.1791,0.1807,0.1838,0.1844,0.1865,0.1848,0.1826,0.1825,0.1683,0.1731,0.1635,0.1609,0.1854,0.1854,0.1855,0,0.1483,0.1495,0.1527,0.1548,0.1565,0.1578,0.1618,0.1641,0.1707,0.1733,0.1787,0.1826,0.1874,0.1867,0.1909,0.19,0.1905,0.1902,0.1901,0.1742,0.1691,0.1586,0.1609,0.1863,0.1863,0.1862,0.1861,0,0.1453,0.1492,0.1509,0.1517,0.1556,0.1567,0.159,0.1654,0.1675,0.1752,0.1776,0.1853,0.186,0.1909,0.1906,0.193,0.1919,0.1949,0.1819,0.1808,0.1705,0.1681,0.1983,0.1983,0.1983,0.1983,0.1983,0,0.1437,0.144,0.1495,0.1491,0.1507,0.1552,0.1576,0.1608,0.1667,0.1696,0.1786,0.1798,0.1873,0.188,0.191,0.1847,0.1921,0.1825,0.18,0.1726,0.1705,0.1907,0.1899,0.1982,0.1982,0.1983,0.1983,0,0.1382,0.1422,0.1429,0.1474,0.1489,0.1496,0.1537,0.1561,0.162,0.1652,0.1678,0.1749,0.1753,0.1783,0.1817,0.1801,0.1791,0.1746,0.1629,0.1589,0.1679,0.1675,0.1654,0.1649,0.1645,0.1641,0.1638,0,0.1345,0.1353,0.1396,0.1405,0.1419,0.1443,0.1462,0.1521,0.1546,0.1608,0.1614,0.1637,0.1625,0.1587,0.1576,0.1564,0.164,0.1447,0.1481,0.1669,0.1648,0.1651,0.1652,0.1389,0.1384,0.138,0.1377,0,0.1264,0.1292,0.1302,0.1332,0.1349,0.1358,0.1393,0.1395,0.1462,0.1476,0.1477,0.1478,0.1446,0.1371,0.1317,0.1316,0.1451,0.1363,0.1604,0.1461,0.1411,0.1392,0.1405,0.1342,0.1345,0.1348,0.135,0.1351,0.1192,0.1188,0.1222,0.124,0.1263,0.1261,0.1237,0.1271,0.126,0.1266,0.1315,0.1263,0.1278,0.1142,0.1095,0.1071,0.1192,0.1186,0.1203,0.1223,0.1168,0.111,0.0974,0.0976,0.0977,0.0978,0.0979,0,0.1098,0.1115,0.1131,0.1137,0.1128,0.1173,0.1178,0.1141,0.1089,0.1118,0.1095,0.0985,0.0916,0.0929,0.0845,0.0834,0.0886,0.0804,0.0893,0.0926,0.0957,0.0893,0.0624,0.0623,0.0621,0.062,0,0,0.1045,0.1029,0.1047,0.1,0.1009,0.0963,0.0944,0.0908,0.0907,0.0844,0.0815,0.0873,0.0901,0.0754,0.0736,0.0666,0.0796,0.0637,0.0924,0.1063,0.1092,0.1177,0.1115,0,0,0,0,0]},{"header":{"parameterUnit":"m.s-1","parameterCategory":2,"la1":30.2991,"la2":30.254,"lo1":-89.0895,"lo2":-89.0444,"dy":0.0017,"dx":0.0017,"nx":28,"ny":28,"refTime":"2024-09-27T03:00:00:Z","depth":"2","parameterNumber":3,"parameterNumberName":"V-component_of_CURRENTS"},"data":[0,0,0,0,0,0,0,0,0,0,0,0,0,0,0,0,0,0,0,0,0,0,0,0,0,0,0,0,0,0,0,0,0,0,0,0,0,0,0,0,0,0,0,0,0,0,0,0,0,0,0,0,0,0,0,0,0,0,0.0142,0.0142,0,0.0187,0.0187,0.0188,0.0214,0.0213,0.0213,0.0213,0.0231,0.0232,0.0233,0,0,0,0,0,0,0,0,0,0,0,0,0,0.009,0.0091,0.0142,0.0142,0.0143,0.0187,0.0187,0.0188,0.0214,0.0213,0.0213,0.0213,0.0231,0.0232,0.0233,0,0,0,0,0,0,0,0,0,0,0,0,0,0.0124,0.0092,0.0142,0.0159,0.016,0.0186,0.0187,0.0189,0.0214,0.0213,0.0213,0.0213,0.0231,0.0232,0.0233,0.0243,0,0,0.0236,0.0236,0,0,0,0,0,0,0,0,0.0122,0.0126,0.0156,0.0158,0.016,0.0192,0.0176,0.0204,0.0214,0.0196,0.0213,0.0213,0.0214,0.0217,0.0229,0.0243,0.0244,0.0236,0.0236,0.0237,0.0237,0,0,0,0,0,0,0,0.012,0.0124,0.0162,0.0156,0.0158,0.0168,0.0173,0.0182,0.0207,0.0198,0.0199,0.02,0.0216,0.0229,0.023,0.0245,0.0236,0.0236,0.0237,0.0237,0.0266,0.0266,0,0,0,0,0,0,0.0109,0.0122,0.0161,0.0163,0.0137,0.0169,0.0174,0.0184,0.0208,0.0211,0.02,0.0201,0.0227,0.0229,0.0231,0.0254,0.0237,0.0237,0.0238,0.0266,0.0266,0.0267,0,0,0,0,0,0,0.0108,0.0112,0.0159,0.0141,0.0147,0.017,0.018,0.0185,0.0201,0.021,0.0213,0.0212,0.0227,0.0229,0.0238,0.0255,0.0238,0.0239,0.0266,0.0266,0.0266,0.0295,0,0,0,0,0,0,0.0106,0.0112,0.0121,0.0141,0.0148,0.0179,0.0181,0.0186,0.0201,0.0202,0.022,0.0222,0.0227,0.0236,0.0238,0.0256,0.0239,0.0266,0.0266,0.0266,0.0294,0.0296,0.0298,0,0,0,0,0,0.0105,0.0117,0.0122,0.0126,0.0159,0.0179,0.0185,0.0201,0.0201,0.0214,0.0218,0.0221,0.024,0.0237,0.024,0.0258,0.0265,0.0266,0.0266,0.0292,0.0295,0.0298,0,0,0,0,0,0,0.01,0.0121,0.0127,0.0145,0.0162,0.0183,0.0198,0.0203,0.0219,0.0217,0.0224,0.0226,0.0242,0.0241,0.0237,0.0265,0.0254,0.0255,0.0273,0.0275,0.0278,0.0292,0.024,0,0,0,0,0,0.0102,0.0114,0.0136,0.0148,0.0162,0.018,0.0191,0.0198,0.021,0.0218,0.0226,0.0233,0.0246,0.0253,0.0261,0.0276,0.0272,0.0288,0.029,0.0292,0.0304,0.0306,0.031,0.0268,0.0268,0.0268,0,0,0.0099,0.0113,0.0119,0.0147,0.0166,0.0192,0.0188,0.0205,0.0222,0.0216,0.0241,0.0242,0.0251,0.0269,0.0276,0.0271,0.0299,0.0293,0.0295,0.0306,0.0307,0.0311,0.0315,0.0268,0.0268,0.0268,0,0,0.0107,0.012,0.014,0.0158,0.0182,0.0196,0.0201,0.0222,0.0232,0.025,0.025,0.026,0.0278,0.0289,0.0298,0.0316,0.0311,0.0316,0.0343,0.0344,0.0348,0.0351,0.0343,0.0345,0.0318,0.0318,0.0318,0,0.0107,0.0135,0.0147,0.0176,0.0195,0.02,0.023,0.0242,0.0257,0.027,0.026,0.0292,0.0293,0.0325,0.033,0.0324,0.0318,0.0334,0.0348,0.0351,0.0354,0.0345,0.0347,0.032,0.0319,0.0319,0.0319,0,0.0134,0.0159,0.0174,0.0213,0.0234,0.0256,0.0276,0.0289,0.0296,0.031,0.0335,0.0333,0.0358,0.0353,0.0351,0.0375,0.0361,0.035,0.0344,0.036,0.0349,0.0351,0.0322,0.0321,0.0321,0.032,0,0,0.013,0.0184,0.0189,0.0218,0.0256,0.0276,0.0305,0.0341,0.0369,0.0371,0.0409,0.0417,0.0417,0.0425,0.0416,0.0413,0.042,0.0393,0.0392,0.0388,0.0415,0.0383,0.0381,0.041,0.0411,0.0412,0.0396,0,0.0152,0.0207,0.0229,0.028,0.0316,0.0333,0.0365,0.039,0.0412,0.0445,0.0442,0.0475,0.0445,0.0459,0.0452,0.0435,0.0427,0.0425,0.0397,0.0396,0.0368,0.0384,0.0375,0.0359,0.0398,0.0398,0.0398,0,0.018,0.0213,0.0269,0.0326,0.0345,0.0372,0.0429,0.0458,0.0499,0.0513,0.0537,0.0545,0.0555,0.0521,0.0499,0.0499,0.0464,0.0437,0.0436,0.0401,0.0367,0.035,0.0361,0.0401,0.0401,0.04,0.04,0,0.0179,0.0243,0.0288,0.0308,0.0371,0.0397,0.043,0.0479,0.0515,0.0562,0.0593,0.0604,0.061,0.058,0.0531,0.0521,0.0493,0.0473,0.0408,0.0404,0.0391,0.0385,0.0454,0.0455,0.0455,0.0455,0.0455,0,0.0201,0.0236,0.0291,0.0315,0.037,0.0411,0.0472,0.0502,0.056,0.0613,0.0629,0.066,0.0624,0.0609,0.0557,0.0489,0.0514,0.0421,0.0404,0.0398,0.0394,0.0426,0.0423,0.0454,0.0454,0.0454,0.0454,0,0.0202,0.0237,0.0289,0.0351,0.0374,0.0412,0.0491,0.0541,0.0586,0.0654,0.0675,0.0702,0.0678,0.0631,0.0576,0.0518,0.0462,0.0427,0.0418,0.0399,0.0366,0.0364,0.0365,0.0363,0.0362,0.0362,0.0361,0,0.0215,0.024,0.0304,0.034,0.0371,0.0432,0.0484,0.0543,0.06,0.0678,0.0713,0.0717,0.0716,0.0622,0.0532,0.0441,0.0434,0.0367,0.0347,0.0376,0.0359,0.0359,0.0359,0.0336,0.0335,0.0334,0.0334,0,0.0234,0.0248,0.0287,0.0356,0.0411,0.0474,0.0548,0.0591,0.0669,0.0715,0.0767,0.0772,0.0692,0.0603,0.048,0.0411,0.0385,0.0348,0.0395,0.0356,0.0347,0.0331,0.0332,0.0328,0.0328,0.0329,0.0329,0.0329,0.0244,0.0266,0.0316,0.0382,0.0443,0.0515,0.0562,0.0636,0.0704,0.0782,0.0788,0.079,0.0699,0.0535,0.0423,0.0314,0.0328,0.0286,0.0289,0.0293,0.0288,0.0277,0.0244,0.0245,0.0245,0.0245,0.0245,0,0.0264,0.0291,0.0349,0.042,0.0482,0.0516,0.0611,0.0657,0.0722,0.0791,0.082,0.0724,0.0623,0.0519,0.0354,0.0251,0.0244,0.0208,0.0235,0.0241,0.0247,0.0241,0.0184,0.0183,0.0183,0.0183,0,0,0.0278,0.0321,0.0346,0.0441,0.0493,0.0572,0.0619,0.0682,0.0744,0.079,0.0803,0.0801,0.0674,0.0539,0.0397,0.0301,0.0292,0.0268,0.0327,0.0381,0.0388,0.0299,0.0298,0,0,0,0,0]}],[{"header":{"parameterUnit":"m.s-1","parameterCategory":2,"la1":30.2991,"la2":30.254,"lo1":-89.0895,"lo2":-89.0444,"dy":0.0017,"dx":0.0017,"nx":28,"ny":28,"refTime":"2024-09-27T03:00:00:Z","depth":"4","parameterNumber":2,"parameterNumberName":"U-component_of_CURRENTS"},"data":[0,0,0,0,0,0,0,0,0,0,0,0,0,0,0,0,0,0,0,0,0,0,0,0,0,0,0,0,0,0,0,0,0,0,0,0,0,0,0,0,0,0,0,0,0,0,0,0,0,0,0,0,0,0,0,0,0,0,0.052,0.052,0,0.055,0.055,0.055,0.0566,0.0567,0.0567,0.0567,0.0584,0.0584,0.0584,0,0,0,0,0,0,0,0,0,0,0,0,0,0.0527,0.0527,0.052,0.0521,0.0521,0.055,0.055,0.0551,0.0566,0.0567,0.0567,0.0567,0.0583,0.0584,0.0584,0,0,0,0,0,0,0,0,0,0,0,0,0,0.0535,0.0526,0.052,0.0534,0.0536,0.055,0.055,0.0551,0.0566,0.0567,0.0567,0.0567,0.0583,0.0584,0.0584,0.058,0,0,0.0585,0.0585,0,0,0,0,0,0,0,0,0.0535,0.0535,0.0531,0.0533,0.0535,0.0556,0.0559,0.0561,0.0566,0.0553,0.0567,0.0567,0.0574,0.0575,0.0578,0.0581,0.0582,0.0585,0.0586,0.0586,0.0586,0,0,0,0,0,0,0,0.0534,0.0534,0.053,0.0532,0.0534,0.0556,0.0557,0.056,0.056,0.0554,0.0556,0.0562,0.0575,0.0577,0.0578,0.0582,0.0585,0.0586,0.0586,0.0586,0.0646,0.0648,0,0,0,0,0,0,0.0531,0.0533,0.0529,0.0531,0.0538,0.0556,0.0557,0.0548,0.056,0.0563,0.0562,0.0563,0.0577,0.0578,0.0579,0.0625,0.0586,0.0586,0.0586,0.0645,0.0647,0.0648,0,0,0,0,0,0,0.0531,0.053,0.0528,0.0535,0.0537,0.0555,0.0545,0.0548,0.0571,0.0566,0.0569,0.0584,0.0577,0.0578,0.0596,0.0624,0.0586,0.0587,0.0643,0.0646,0.0647,0.0685,0,0,0,0,0,0,0.0531,0.0529,0.0536,0.0534,0.0536,0.0544,0.0545,0.0549,0.0574,0.0576,0.0586,0.0587,0.0577,0.0595,0.0596,0.0623,0.0587,0.0642,0.0644,0.0647,0.0682,0.0688,0.0693,0,0,0,0,0,0.053,0.0528,0.0535,0.0536,0.0539,0.0544,0.0547,0.0561,0.0575,0.0583,0.0594,0.0587,0.0613,0.0596,0.0597,0.0625,0.064,0.0644,0.0647,0.0679,0.0686,0.0693,0,0,0,0,0,0,0.0541,0.0529,0.0537,0.0534,0.0546,0.0548,0.0555,0.0574,0.059,0.0595,0.0596,0.0597,0.0628,0.0621,0.0603,0.0652,0.0629,0.0633,0.0654,0.0661,0.0666,0.0664,0.0587,0,0,0,0,0,0.0545,0.0538,0.0539,0.0543,0.054,0.0555,0.0566,0.0578,0.0587,0.0596,0.061,0.0624,0.0639,0.0645,0.0655,0.0673,0.0666,0.0696,0.0702,0.0706,0.0707,0.0733,0.0741,0.0658,0.0658,0.0658,0,0,0.0552,0.0547,0.0545,0.0546,0.0548,0.055,0.0561,0.0575,0.0595,0.0594,0.0627,0.0645,0.065,0.0674,0.0688,0.0673,0.0723,0.071,0.0714,0.0712,0.0737,0.0745,0.0752,0.066,0.066,0.066,0,0,0.0555,0.0552,0.0544,0.0547,0.0557,0.0562,0.0573,0.0589,0.061,0.0641,0.0654,0.0682,0.0706,0.0713,0.0718,0.076,0.0756,0.0782,0.0802,0.0828,0.0835,0.0841,0.0826,0.083,0.078,0.078,0.078,0,0.0565,0.0557,0.0549,0.0544,0.0552,0.0569,0.0574,0.0591,0.0625,0.0644,0.0655,0.0719,0.0718,0.0753,0.077,0.077,0.0781,0.0773,0.0835,0.0841,0.0846,0.0829,0.0833,0.0782,0.0782,0.0781,0.0781,0,0.0562,0.056,0.0552,0.0547,0.0557,0.0563,0.0579,0.0607,0.0641,0.0663,0.0724,0.0744,0.0777,0.0795,0.0792,0.0844,0.0837,0.0842,0.0814,0.0856,0.0836,0.084,0.0785,0.0784,0.0783,0.0783,0,0,0.0568,0.0551,0.0554,0.0553,0.0561,0.0567,0.0593,0.0619,0.0648,0.0698,0.0742,0.0784,0.0815,0.0824,0.0848,0.0875,0.0909,0.0883,0.0884,0.0861,0.0955,0.0862,0.0856,0.0943,0.0944,0.0945,0.0918,0,0.0571,0.0561,0.0561,0.0567,0.0557,0.0577,0.06,0.0632,0.0671,0.0715,0.0756,0.0807,0.0821,0.0859,0.0888,0.0917,0.0925,0.0914,0.0924,0.0923,0.083,0.086,0.095,0.0921,0.0922,0.0922,0.0923,0,0.0567,0.0563,0.0564,0.0568,0.0567,0.0592,0.0634,0.0664,0.0713,0.0741,0.0799,0.0834,0.0887,0.0897,0.0952,0.0957,0.0954,0.0967,0.0966,0.0869,0.0837,0.0876,0.0929,0.0929,0.0928,0.0928,0.0927,0,0.0568,0.0564,0.057,0.057,0.0579,0.061,0.0641,0.0687,0.0711,0.0782,0.0807,0.0871,0.0912,0.0949,0.0957,0.0975,0.0998,0.1014,0.0917,0.0909,0.0983,0.0977,0.1034,0.1034,0.1034,0.1034,0.1034,0,0.0556,0.0563,0.0579,0.0582,0.0601,0.0628,0.0672,0.0703,0.0759,0.0781,0.084,0.0868,0.0937,0.095,0.0961,0.0936,0.0992,0.0918,0.0903,0.0996,0.0992,0.0983,0.0978,0.1033,0.1033,0.1033,0.1033,0,0.0545,0.0551,0.0553,0.0583,0.0596,0.0624,0.0675,0.0708,0.0768,0.0806,0.0831,0.0874,0.09,0.0922,0.0954,0.0922,0.0917,0.0881,0.0944,0.0934,0.081,0.0807,0.0795,0.0791,0.0788,0.0786,0.0784,0,0.053,0.0533,0.0554,0.0557,0.0578,0.062,0.0648,0.0708,0.0739,0.0797,0.0809,0.0845,0.0863,0.083,0.0854,0.084,0.0829,0.0802,0.0844,0.0802,0.0789,0.0791,0.0792,0.078,0.0779,0.0778,0.0777,0,0.051,0.053,0.0533,0.0535,0.0564,0.0577,0.0632,0.064,0.0709,0.0761,0.0776,0.0778,0.0778,0.0786,0.0755,0.0751,0.0822,0.0773,0.0781,0.082,0.0783,0.0774,0.0778,0.0768,0.0769,0.077,0.0771,0,0.0505,0.0497,0.0506,0.0502,0.0527,0.0539,0.0562,0.0601,0.0631,0.071,0.0702,0.0738,0.0775,0.0734,0.0714,0.0693,0.0702,0.0688,0.07,0.0711,0.0694,0.0636,0.0561,0,0,0,0,0,0.0499,0.0483,0.0472,0.0468,0.0493,0.0508,0.0549,0.0577,0.064,0.0641,0.0674,0.0676,0.0658,0.0663,0.0627,0.0657,0.0689,0.0609,0.0676,0.0713,0.0725,0.071,0,0,0,0,0,0,0.0489,0.0483,0.046,0.0447,0.0447,0.0473,0.0497,0.0533,0.0535,0.0598,0.0596,0.0638,0.063,0.0686,0.0622,0.062,0.0645,0.0627,0.0624,0.0707,0.0717,0.0726,0.0715,0,0,0,0,0]},{"header":{"parameterUnit":"m.s-1","parameterCategory":2,"la1":30.2991,"la2":30.254,"lo1":-89.0895,"lo2":-89.0444,"dy":0.0017,"dx":0.0017,"nx":28,"ny":28,"refTime":"2024-09-27T03:00:00:Z","depth":"4","parameterNumber":3,"parameterNumberName":"V-component_of_CURRENTS"},"data":[0,0,0,0,0,0,0,0,0,0,0,0,0,0,0,0,0,0,0,0,0,0,0,0,0,0,0,0,0,0,0,0,0,0,0,0,0,0,0,0,0,0,0,0,0,0,0,0,0,0,0,0,0,0,0,0,0,0,-0.0044,-0.0043,0,-0.0014,-0.0013,-0.0013,0.002,0.0021,0.0021,0.0022,0.0042,0.0042,0.0042,0,0,0,0,0,0,0,0,0,0,0,0,0,-0.0061,-0.0061,-0.0044,-0.0043,-0.0043,-0.0014,-0.0013,-0.0013,0.002,0.0021,0.0021,0.0022,0.0042,0.0042,0.0042,0,0,0,0,0,0,0,0,0,0,0,0,0,-0.0045,-0.0061,-0.0044,-0.0023,-0.0021,-0.0014,-0.0013,-0.0013,0.002,0.0021,0.0021,0.0022,0.0042,0.0042,0.0042,0.003,0,0,0.0043,0.0043,0,0,0,0,0,0,0,0,-0.0046,-0.0044,-0.0027,-0.0025,-0.0022,0.0,-0.0012,0.0001,0.002,0.0004,0.0022,0.0022,0.0027,0.0028,0.0033,0.003,0.0031,0.0043,0.0043,0.0043,0.0043,0,0,0,0,0,0,0,-0.0047,-0.0045,-0.0032,-0.0026,-0.0024,-0.0012,-0.0008,-0.0009,0.0011,0.0006,0.0008,0.0011,0.0028,0.0032,0.0033,0.0032,0.0043,0.0043,0.0043,0.0043,0.0031,0.0031,0,0,0,0,0,0,-0.0052,-0.0046,-0.0033,-0.0031,-0.0033,-0.0012,-0.0008,-0.0008,0.0011,0.0015,0.0011,0.0013,0.0032,0.0033,0.0034,0.0033,0.0043,0.0043,0.0043,0.0032,0.0031,0.0031,0,0,0,0,0,0,-0.0053,-0.0052,-0.0034,-0.0038,-0.0035,-0.0012,-0.0012,-0.0007,0.0001,0.0015,0.0019,0.0015,0.0032,0.0034,0.0035,0.0034,0.0043,0.0044,0.0032,0.0032,0.0031,0.0023,0,0,0,0,0,0,-0.0054,-0.0052,-0.0051,-0.0038,-0.0035,-0.0027,-0.0012,-0.0007,0.0002,0.0005,0.002,0.0023,0.0033,0.0035,0.0035,0.0034,0.0044,0.0033,0.0032,0.0031,0.0024,0.0022,0.0021,0,0,0,0,0,-0.0054,-0.0054,-0.0052,-0.005,-0.0035,-0.0027,-0.0024,-0.0005,0.0001,0.0005,0.0013,0.0023,0.003,0.0034,0.0035,0.0034,0.0033,0.0032,0.0031,0.0025,0.0023,0.0021,0,0,0,0,0,0,-0.0059,-0.0051,-0.0047,-0.0044,-0.0036,-0.0021,-0.0016,-0.0008,0.0001,0.0004,0.0016,0.0019,0.002,0.0024,0.0028,0.0027,0.0033,0.0032,0.0028,0.0026,0.0025,0.0039,0.0044,0,0,0,0,0,-0.0062,-0.0059,-0.0051,-0.0048,-0.0046,-0.0034,-0.0028,-0.0018,-0.0009,-0.0003,0.0005,0.0011,0.0014,0.0018,0.0021,0.0019,0.0019,0.0018,0.0017,0.0016,0.0027,0.0022,0.0022,0.0028,0.0028,0.0028,0,0,-0.0063,-0.0058,-0.0056,-0.0049,-0.0042,-0.0032,-0.0028,-0.002,-0.0009,-0.0004,0.0008,0.0004,0.0012,0.0013,0.0013,0.0018,0.0009,0.0014,0.0013,0.0026,0.0021,0.0021,0.002,0.0027,0.0027,0.0027,0,0,-0.0058,-0.0061,-0.0054,-0.0047,-0.0038,-0.0033,-0.0032,-0.0023,-0.0016,-0.0012,-0.0005,-0.001,-0.0004,0.0002,0.0006,-0.0005,-0.0001,-0.0006,0.0002,-0.0003,-0.0004,-0.0004,-0.0023,-0.0025,-0.0004,-0.0004,-0.0004,0,-0.0057,-0.0045,-0.005,-0.0038,-0.0028,-0.0033,-0.0018,-0.0016,-0.0007,-0.0006,-0.0008,-0.0002,-0.0007,0.0005,-0.0001,-0.0007,-0.0012,0.0009,-0.0005,-0.0005,-0.0004,-0.0024,-0.0026,-0.0005,-0.0005,-0.0005,-0.0005,0,-0.0039,-0.003,-0.0026,-0.0012,-0.0007,0.0002,0.0004,0.0005,0.0004,0.0002,0.0005,-0.0001,0.0008,-0.0003,-0.0005,-0.0005,-0.0011,-0.0008,0.0002,-0.0005,-0.0026,-0.0028,-0.0006,-0.0005,-0.0005,-0.0005,0,0,-0.0028,-0.0015,-0.0011,0.0003,0.001,0.0019,0.0025,0.003,0.0042,0.0028,0.0041,0.0028,0.002,0.0024,0.0019,0.0009,-0.0014,0.0001,0.0001,-0.0014,-0.0034,-0.0026,-0.0027,-0.0011,-0.0011,-0.0011,-0.0055,0,-0.0007,0.0019,0.0022,0.0049,0.0061,0.0059,0.0069,0.0068,0.0065,0.0068,0.0048,0.0055,0.0034,0.0042,0.0025,0.0004,-0.0016,-0.0003,-0.0027,-0.0028,-0.0015,-0.0027,-0.001,-0.0057,-0.0057,-0.0057,-0.0057,0,0.0019,0.0032,0.006,0.0083,0.0089,0.0106,0.0126,0.0138,0.0127,0.0122,0.0116,0.0102,0.0087,0.0069,0.0031,0.0042,0.0004,-0.0022,-0.0024,-0.0008,-0.0021,-0.0043,-0.006,-0.006,-0.006,-0.006,-0.006,0,0.0036,0.0064,0.0088,0.0097,0.0116,0.0135,0.0152,0.0154,0.0168,0.0166,0.0169,0.0146,0.0145,0.0101,0.0041,0.004,-0.001,-0.0018,-0.0051,-0.0052,-0.0042,-0.0041,-0.0052,-0.0052,-0.0052,-0.0052,-0.0052,0,0.0061,0.0082,0.0102,0.0118,0.0153,0.0163,0.0202,0.021,0.0224,0.0236,0.0209,0.0213,0.0155,0.0115,0.0053,-0.0001,-0.0001,-0.0047,-0.0057,-0.0048,-0.0048,-0.0045,-0.0043,-0.0054,-0.0054,-0.0053,-0.0053,0,0.0075,0.0086,0.0117,0.0147,0.0162,0.0192,0.024,0.0266,0.0276,0.0297,0.0299,0.0264,0.0218,0.0149,0.0073,0.0027,-0.0034,-0.0059,-0.0053,-0.0062,-0.008,-0.0079,-0.0093,-0.0093,-0.0093,-0.0093,-0.0093,0,0.0086,0.01,0.014,0.0164,0.0184,0.0229,0.0261,0.0289,0.0313,0.0325,0.0331,0.0297,0.0261,0.0164,0.0084,-0.0022,-0.004,-0.0074,-0.0071,-0.0073,-0.0082,-0.008,-0.0079,-0.0093,-0.0093,-0.0093,-0.0093,0,0.0105,0.0115,0.0138,0.0186,0.0228,0.0268,0.0316,0.0334,0.0361,0.0371,0.0365,0.0315,0.0259,0.0171,0.0093,0.0011,-0.0048,-0.0074,-0.0075,-0.0073,-0.0073,-0.0081,-0.008,-0.0093,-0.0093,-0.0093,-0.0093,0,0.0119,0.0133,0.0164,0.0207,0.0253,0.0292,0.0317,0.0349,0.0374,0.0388,0.038,0.0322,0.029,0.0187,0.0108,0.004,0.0019,-0.0005,-0.0009,-0.0011,0.0028,0.004,0.0051,0,0,0,0,0,0.0135,0.0149,0.0186,0.0231,0.0276,0.0303,0.0345,0.0363,0.0387,0.0392,0.0391,0.0338,0.0242,0.0194,0.0128,0.0093,-0.0005,0.0012,-0.0039,-0.0092,-0.0092,-0.0059,0,0,0,0,0,0,0.0145,0.0172,0.0184,0.0241,0.0275,0.0325,0.0349,0.0366,0.0367,0.0381,0.033,0.0323,0.0223,0.0283,0.0128,0.0107,0.0066,-0.0029,-0.0031,-0.0092,-0.0092,-0.0092,-0.0059,0,0,0,0,0]}]]